Location: Oberstdorf
(47.4188°N, 10.2969°E)
Time: 02:17:10
(UTC+01:00)

ISS - Pass Details

Date: 11 February 2018
Orbit: 403 x 407 km, 51.6° (Epoch: 22 February)

Event Time Altitude Azimuth Distance (km) Brightness Sun altitude
Rises 19:24:27 0° 286° (WNW) 2,321 1.4 -18.8°
Reaches altitude 10° 19:26:59 10° 266° (W) 1,458 0.2 -19.2°
Maximum altitude 19:29:14 17° 223° (SW) 1,092 -1.2 -19.6°
Enters shadow 19:31:24 10° 180° (S) 1,432 -1.1 -20.0°
